TimeEDT,TemperatureF,Dew PointF,Humidity,Sea Level PressureIn,VisibilityMPH,Wind Direction,Wind SpeedMPH,Gust SpeedMPH,PrecipitationIn,Events,Conditions,WindDirDegrees,DateUTC
12:15 AM,66.2,59.0,78,30.07,10.0,ENE,11.5,16.1,N/A,,Overcast,70,2013-05-02 04:15:00
12:35 AM,64.4,60.8,88,30.07,10.0,ENE,9.2,-,N/A,,Light Drizzle,70,2013-05-02 04:35:00
12:55 AM,64.4,59.0,83,30.07,10.0,East,11.5,17.3,N/A,,Overcast,80,2013-05-02 04:55:00
1:15 AM,64.4,59.0,83,30.06,10.0,East,10.4,-,N/A,Rain,Light Rain,90,2013-05-02 05:15:00
1:35 AM,64.4,59.0,83,30.06,10.0,East,11.5,-,N/A,,Mostly Cloudy,90,2013-05-02 05:35:00
1:55 AM,64.4,59.0,83,30.04,10.0,ENE,9.2,-,N/A,,Overcast,70,2013-05-02 05:55:00
2:15 AM,64.4,59.0,83,30.04,10.0,ENE,8.1,-,N/A,,Overcast,70,2013-05-02 06:15:00
2:35 AM,64.4,59.0,83,30.04,10.0,ENE,9.2,-,N/A,,Overcast,70,2013-05-02 06:35:00
2:55 AM,64.4,59.0,83,30.04,10.0,ENE,8.1,-,N/A,,Overcast,70,2013-05-02 06:55:00
3:15 AM,64.4,59.0,83,30.04,10.0,ENE,8.1,-,N/A,,Overcast,60,2013-05-02 07:15:00
3:35 AM,64.4,59.0,83,30.03,10.0,ENE,5.8,-,N/A,,Overcast,70,2013-05-02 07:35:00
3:55 AM,64.4,59.0,83,30.03,10.0,East,6.9,-,N/A,,Overcast,80,2013-05-02 07:55:00
4:15 AM,64.4,59.0,83,30.03,10.0,ENE,4.6,-,N/A,,Overcast,70,2013-05-02 08:15:00
4:35 AM,64.4,60.8,88,30.02,10.0,ENE,6.9,-,N/A,,Overcast,70,2013-05-02 08:35:00
4:55 AM,64.4,60.8,88,30.02,10.0,East,9.2,-,N/A,,Overcast,80,2013-05-02 08:55:00
5:15 AM,64.4,60.8,88,30.02,10.0,East,10.4,-,N/A,,Overcast,80,2013-05-02 09:15:00
5:35 AM,64.4,60.8,88,30.02,10.0,East,9.2,-,N/A,,Overcast,80,2013-05-02 09:35:00
5:55 AM,64.4,62.6,94,30.01,10.0,ENE,10.4,-,N/A,,Overcast,70,2013-05-02 09:55:00
6:15 AM,64.4,62.6,94,30.02,10.0,East,10.4,-,N/A,,Overcast,80,2013-05-02 10:15:00
6:35 AM,64.4,62.6,94,30.02,10.0,ENE,11.5,18.4,N/A,,Overcast,70,2013-05-02 10:35:00
6:55 AM,64.4,62.6,94,30.02,10.0,East,11.5,-,N/A,,Overcast,80,2013-05-02 10:55:00
7:15 AM,64.4,62.6,94,30.03,10.0,ENE,10.4,-,N/A,,Overcast,70,2013-05-02 11:15:00
7:55 AM,64.4,62.6,94,30.04,7.0,ENE,11.5,19.6,N/A,,Overcast,70,2013-05-02 11:55:00
8:15 AM,64.4,62.6,94,30.04,10.0,ENE,10.4,17.3,N/A,,Overcast,70,2013-05-02 12:15:00
8:35 AM,64.4,62.6,94,30.04,4.0,ENE,10.4,18.4,N/A,,Overcast,60,2013-05-02 12:35:00
8:55 AM,64.4,64.4,100,30.04,4.0,ENE,10.4,16.1,N/A,,Overcast,70,2013-05-02 12:55:00
9:15 AM,64.4,64.4,100,30.04,10.0,ENE,11.5,-,N/A,,Overcast,70,2013-05-02 13:15:00
9:35 AM,66.2,64.4,94,30.04,10.0,East,8.1,16.1,N/A,,Overcast,80,2013-05-02 13:35:00
9:55 AM,68.0,64.4,88,30.05,10.0,East,10.4,-,N/A,,Overcast,90,2013-05-02 13:55:00
10:15 AM,68.0,64.4,88,30.04,10.0,ENE,12.7,-,N/A,,Overcast,70,2013-05-02 14:15:00
10:35 AM,68.0,64.4,88,30.03,10.0,ENE,13.8,19.6,N/A,,Overcast,70,2013-05-02 14:35:00
10:55 AM,68.0,64.4,88,30.04,10.0,East,10.4,20.7,N/A,,Overcast,80,2013-05-02 14:55:00
11:15 AM,69.8,64.4,83,30.04,10.0,East,11.5,-,N/A,,Overcast,80,2013-05-02 15:15:00
11:35 AM,69.8,64.4,83,30.04,10.0,East,10.4,16.1,N/A,,Overcast,90,2013-05-02 15:35:00
11:55 AM,71.6,64.4,78,30.04,10.0,East,15.0,21.9,N/A,,Overcast,90,2013-05-02 15:55:00
12:15 PM,71.6,64.4,78,30.04,10.0,East,17.3,21.9,N/A,,Overcast,100,2013-05-02 16:15:00
12:35 PM,71.6,64.4,78,30.03,10.0,ENE,9.2,17.3,N/A,,Overcast,70,2013-05-02 16:35:00
12:55 PM,69.8,64.4,83,30.03,7.0,East,10.4,19.6,N/A,,Overcast,80,2013-05-02 16:55:00
1:15 PM,71.6,64.4,78,30.02,10.0,East,12.7,18.4,N/A,,Overcast,80,2013-05-02 17:15:00
1:35 PM,69.8,64.4,83,30.02,7.0,East,12.7,17.3,N/A,,Overcast,80,2013-05-02 17:35:00
1:55 PM,71.6,64.4,78,30.01,10.0,East,13.8,19.6,N/A,,Overcast,80,2013-05-02 17:55:00
2:15 PM,71.6,64.4,78,30.01,10.0,ENE,12.7,-,N/A,,Overcast,70,2013-05-02 18:15:00
2:35 PM,71.6,64.4,78,30.01,10.0,ENE,13.8,-,N/A,,Overcast,70,2013-05-02 18:35:00
2:55 PM,73.4,64.4,73,29.99,10.0,East,13.8,21.9,N/A,,Overcast,80,2013-05-02 18:55:00
3:15 PM,71.6,64.4,78,29.99,10.0,ENE,13.8,19.6,N/A,,Overcast,70,2013-05-02 19:15:00
3:35 PM,71.6,64.4,78,29.99,7.0,ENE,13.8,23.0,N/A,Rain,Light Rain,70,2013-05-02 19:35:00
3:55 PM,69.8,66.2,88,29.98,10.0,East,12.7,17.3,N/A,,Light Drizzle,80,2013-05-02 19:55:00
4:15 PM,71.6,66.2,83,29.97,10.0,ENE,16.1,20.7,N/A,Rain,Light Rain,70,2013-05-02 20:15:00
4:35 PM,69.8,66.2,88,29.97,10.0,East,17.3,25.3,N/A,,Overcast,80,2013-05-02 20:35:00
4:55 PM,69.8,66.2,88,29.98,5.0,East,9.2,-,N/A,Rain,Rain,80,2013-05-02 20:55:00
5:15 PM,68.0,64.4,88,29.98,7.0,East,16.1,24.2,N/A,Rain,Light Rain,90,2013-05-02 21:15:00
5:35 PM,68.0,64.4,88,29.98,7.0,East,11.5,24.2,N/A,Rain,Light Rain,80,2013-05-02 21:35:00
5:55 PM,68.0,64.4,88,29.98,10.0,East,11.5,17.3,N/A,Rain,Light Rain,80,2013-05-02 21:55:00
6:15 PM,68.0,64.4,88,29.97,10.0,ENE,11.5,16.1,N/A,,Light Drizzle,70,2013-05-02 22:15:00
6:35 PM,68.0,64.4,88,29.97,10.0,ENE,12.7,-,N/A,,Overcast,70,2013-05-02 22:35:00
6:55 PM,68.0,64.4,88,29.98,10.0,East,10.4,-,N/A,,Overcast,80,2013-05-02 22:55:00
7:15 PM,68.0,64.4,88,29.98,10.0,ENE,11.5,17.3,N/A,,Overcast,70,2013-05-02 23:15:00
7:35 PM,68.0,64.4,88,29.98,10.0,East,11.5,16.1,N/A,Rain,Light Rain,80,2013-05-02 23:35:00
7:55 PM,68.0,64.4,88,29.97,10.0,ENE,10.4,16.1,N/A,Rain,Light Rain,70,2013-05-02 23:55:00
8:15 PM,68.0,64.4,88,29.98,10.0,ENE,10.4,-,N/A,,Light Drizzle,70,2013-05-03 00:15:00
8:35 PM,68.0,64.4,88,29.98,10.0,ENE,8.1,-,N/A,Rain,Light Rain,60,2013-05-03 00:35:00
8:55 PM,68.0,64.4,88,29.98,10.0,ENE,8.1,-,N/A,,Overcast,60,2013-05-03 00:55:00
9:15 PM,68.0,64.4,88,29.98,10.0,ENE,8.1,-,N/A,,Overcast,60,2013-05-03 01:15:00
9:35 PM,68.0,64.4,88,29.98,10.0,ENE,10.4,-,N/A,,Overcast,60,2013-05-03 01:35:00
9:55 PM,68.0,64.4,88,29.98,10.0,ENE,11.5,-,N/A,,Overcast,60,2013-05-03 01:55:00
10:15 PM,68.0,62.6,83,29.98,10.0,ENE,13.8,-,N/A,,Overcast,70,2013-05-03 02:15:00
10:35 PM,68.0,62.6,83,29.98,10.0,ENE,9.2,-,N/A,,Overcast,70,2013-05-03 02:35:00
10:55 PM,68.0,62.6,83,29.98,10.0,ENE,10.4,17.3,N/A,,Overcast,60,2013-05-03 02:55:00
11:15 PM,66.2,62.6,88,29.97,10.0,ENE,11.5,-,N/A,,Overcast,60,2013-05-03 03:15:00
11:35 PM,66.2,62.6,88,29.96,10.0,ENE,11.5,-,N/A,,Overcast,60,2013-05-03 03:35:00
11:55 PM,66.2,62.6,88,29.96,10.0,ENE,10.4,-,N/A,,Overcast,60,2013-05-03 03:55:00